Weather History for Laramie, WY

Change the Weather History Date:

Thursday, December 12, 2013

  Actual Average Record
Temperature  
Mean Temperature 32 °F 21 °F  
Max Temperature 40 °F 32 °F 50 °F (1962)
Min Temperature 23 °F 10 °F -20 °F (1972)
Degree Days  
Heating Degree Days 33 44  
Month to date heating degree days 664 520  
Since 1 July heating degree days 2786 2832  
Cooling Degree Days 0 0  
Month to date cooling degree days 0 0  
Year to date cooling degree days 162 67  
Moisture  
Dew Point 10 °F    
Average Humidity 40    
Maximum Humidity 46    
Minimum Humidity 34    
Precipitation  
Precipitation 0.00 in 0.01 in 0.43 in (1992)
Month to date precipitation 0.07 0.14  
Year to date precipitation 11.99 10.74  
Sea Level Pressure  
Sea Level Pressure 30.17 in    
Wind  
Wind Speed 25 mph (SW)    
Max Wind Speed 37 mph    
Max Gust Speed 43 mph    
Visibility 10 miles    
Events      
T = Trace of Precipitation, MM = Missing Value Source: NWS Daily Summary

Daily Weather History Graph

Daily Weather History Graph

Search for Another Location

Airport:

Trip Planner

Search our weather history database for the weather conditions in past years. The results will help you decide how hot, cold, wet, or windy it might be!

Date:

Astronomy

Dec. 12, 2013 Rise Set
Actual Time 7:19 AM MST 4:33 PM MST
Civil Twilight 6:48 AM MST 5:04 PM MST
Nautical Twilight 6:13 AM MST 5:39 PM MST
Astronomical Twilight 5:39 AM MST 6:13 PM MST
Moon 1:44 PM MST (12/12) 2:42 AM MST (12/12)
Length of Visible Light 10h 16m
Length of Day
9h 14m
Waxing Gibbous, 81% of the Moon is Illuminated
Dec 12
Waxing Gibbous
Dec 17
Full
Dec 25
Last Quarter
Jan 1
New
Jan 7
First Quarter

Hourly Weather History & Observations

Time (MST) Temp. Windchill Dew Point Humidity Pressure Visibility Wind Dir Wind Speed Gust Speed Precip Events Conditions
12:53 AM 24.1 °F 8.0 °F 5.0 °F 44% 30.31 in 10.0 mi SW 25.3 mph - N/A   Clear
1:53 AM 25.0 °F 7.8 °F 6.1 °F 45% 30.29 in 10.0 mi SW 31.1 mph 39.1 mph N/A   Clear
2:53 AM 26.1 °F 9.3 °F 6.1 °F 43% 30.30 in 10.0 mi SW 31.1 mph - N/A   Clear
3:53 AM 26.1 °F 9.3 °F 7.0 °F 44% 30.31 in 10.0 mi SW 31.1 mph 41.4 mph N/A   Clear
4:53 AM 24.1 °F 6.1 °F 7.0 °F 48% 30.31 in 10.0 mi SW 33.4 mph - N/A   Clear
5:53 AM 27.0 °F 11.9 °F 7.0 °F 43% 30.33 in 10.0 mi SW 25.3 mph 34.5 mph N/A   Clear
6:53 AM 28.0 °F 12.0 °F 8.1 °F 43% 30.30 in 10.0 mi SW 31.1 mph - N/A   Clear
7:53 AM 28.0 °F 13.0 °F 8.1 °F 43% 30.31 in 10.0 mi SW 26.5 mph 35.7 mph N/A   Clear
8:53 AM 30.0 °F 17.9 °F 10.0 °F 43% 30.31 in 10.0 mi SW 18.4 mph - N/A   Clear
9:53 AM 33.1 °F 22.2 °F 12.9 °F 43% 30.29 in 10.0 mi WSW 17.3 mph - N/A   Clear
10:53 AM 36.0 °F 23.7 °F 12.9 °F 39% 30.24 in 10.0 mi WSW 26.5 mph - N/A   Clear
11:53 AM 37.9 °F 27.1 °F 12.9 °F 36% 30.19 in 10.0 mi SW 23.0 mph - N/A   Clear
12:53 PM 39.9 °F 29.0 °F 14.0 °F 35% 30.15 in 10.0 mi SW 26.5 mph - N/A   Clear
1:53 PM 39.0 °F 27.6 °F 14.0 °F 36% 30.11 in 10.0 mi WSW 27.6 mph - N/A   Clear
2:53 PM 39.0 °F 26.8 °F 14.0 °F 36% 30.08 in 10.0 mi WSW 32.2 mph - N/A   Clear
3:53 PM 36.0 °F 25.0 °F 14.0 °F 41% 30.11 in 10.0 mi SW 20.7 mph - N/A   Clear
4:53 PM 33.1 °F 23.0 °F 12.0 °F 42% 30.12 in 10.0 mi WSW 15.0 mph - N/A   Clear
5:53 PM 33.1 °F 20.6 °F 10.9 °F 40% 30.09 in 10.0 mi WSW 23.0 mph 32.2 mph N/A   Clear
6:53 PM 30.9 °F 19.1 °F 10.0 °F 42% 30.07 in 10.0 mi SW 18.4 mph - N/A   Clear
7:53 PM 28.9 °F 16.5 °F 10.0 °F 45% 30.06 in 10.0 mi SW 18.4 mph - N/A   Clear
8:53 PM 30.0 °F 16.9 °F 9.0 °F 41% 30.03 in 10.0 mi SSW 21.9 mph - N/A   Clear
9:53 PM 28.9 °F 14.3 °F 8.1 °F 41% 29.99 in 10.0 mi SW 26.5 mph - N/A   Clear
10:53 PM 30.0 °F 16.9 °F 8.1 °F 40% 29.96 in 10.0 mi SW 21.9 mph - N/A   Clear
11:53 PM 28.9 °F 14.5 °F 8.1 °F 41% 29.92 in 10.0 mi SW 25.3 mph - N/A   Clear